STARLINK-2644 (48442 NORAD) Tracking and Keplerian Element Data

This shows tracking and keplerian element data for the satellite.

Feedback or suggestion? Click here.




ElementValue
Catalog48442
NameSTARLINK-2644
Epoch Orbit365
Epoch Day214.91667824
Epoch Year2021
RAAN162.7899
Inclination53.0447
Eccentricity0.0001478
Argument of Perigee73.5515
Mean Anonmoly157.3127
Mean Motion15.2053846
Decay Rate-0.00833877
L11 48442U 21040Q 21214.91667824 -.00833877 00000-0 -40827-1 0 9992
L22 48442 53.0447 162.7899 0001478 73.5515 157.3127 15.20538460 3659

Live tracking and technical data element details for STARLINK-2644 (NORAD 48442). STARLINK-2644 can be tracked NOW for your location showing map with azimuth and elevation plus other details from your city location.

Track the satellite on the map from your city or location and see movement details for azimuth, elevation, latitude, longitude, range, height, and movement on the map or in text.







IsCatalogInMostPopularTable: catalog: 48442, numindb: 26
Update: records affected: 1



GetName: 48442 STARLINK-2644

Hit Count: updated at: Tue, 03 Aug 2021 20:17:04 GMT